Flag for Germany Weather past 2 weeks in Dorsten, North Rhine-Westphalia, Germany

Now
66 °F

Scattered clouds.


Feels Like: 66 °F
Forecast: 53 / 70 °F
Wind: 1 mph from North

Location: Essen

Current Time: Oct 2, 2014 at 6:20:58 PM

Latest Report: Oct 2, 2014 at 6:00 PM


Visibility: 9 mi

Pressure: 30.35 "Hg

Humidity: 73%

Dew point: 57 °F

Location of DorstenLocation

Historic Weather in Dorsten — Graph

°F

Dorsten temperature yesterday

Maximum temperature yesterday: 67 °F (at 5:00 PM)
Minimum temperature yesterday: 57 °F (at 12:00 AM)
Average temperature yesterday: 60 °F

Past Weeks' High & Low Weather Summary

 TemperatureHumidityPressure
High76 °F (Sep 17, 6:00 PM)100% (Sep 19, 12:00 AM)30.40 "Hg (Sep 19, 12:00 AM)
Low46 °F (Sep 23, 7:00 AM)49% (Sep 17, 6:00 PM)29.82 "Hg (Sep 19, 5:00 AM)
Average60 °F84%30.12 "Hg
* Reported Sep 17 5:00 PM — Oct 2 5:00 PM, Dorsten, Weather by CustomWeather, © 2014

Note: Actual official high and low records may vary slightly from our data, if they occured in-between our weather recording intervals... More about our weather records

Advertising

Dorsten weather history for previous 24 hours

 ConditionsComfort  
Time TempWeatherWind HumidityBarometerVisibility
5:00 PM
Oct 2
67 °FOvercast.2 mph72%30.35 "Hg7 mi
4:00 PM68 °FOvercast.2 mph69%30.37 "Hg7 mi
3:00 PM68 °FOvercast.2 mph68%30.37 "Hg7 mi
2:00 PM68 °FOvercast.2 mph72%30.37 "Hg6 mi
1:00 PM67 °FScattered clouds.2 mph74%30.39 "Hg6 mi
12:00 PM64 °FPartly sunny.2 mph79%30.40 "Hg5 mi
11:00 AM61 °FFog.2 mph86%30.40 "Hg4 mi
10:00 AM60 °FFog.3 mph86%30.39 "Hg3 mi
9:00 AM58 °FFog.2 mph91%30.39 "Hg3 mi
8:00 AM56 °FFog.2 mph94%30.39 "Hg2 mi
7:00 AM57 °FFog.2 mph92%30.38 "Hg3 mi
6:00 AM58 °FFog.2 mph90%30.37 "Hg3 mi
5:00 AM58 °FFog.2 mph88%30.37 "Hg4 mi
4:00 AM59 °FFog.2 mph88%30.37 "Hg4 mi
3:00 AM59 °FFog.2 mph87%30.37 "Hg4 mi
2:00 AM59 °FFog.2 mph86%30.37 "Hg4 mi
1:00 AM60 °FPassing clouds.2 mph85%30.37 "Hg6 mi
12:00 AM59 °FPassing clouds.2 mph87%30.36 "Hg5 mi
11:00 PM
Oct 1
58 °FFog.1 mph97%30.35 "Hg3 mi
10:00 PM59 °FFog.No wind93%30.35 "Hg4 mi
9:00 PM60 °FClear.1 mph88%30.34 "Hg6 mi
8:00 PM60 °FPassing clouds.No wind88%30.33 "Hg6 mi
7:00 PM63 °FSunny.No wind79%30.32 "Hg9 mi
6:00 PM66 °FOvercast.1 mph68%30.31 "Hg9 mi
Weather by CustomWeather, © 2014

See weather overviewHow to use our weather pages